Location: Dammartin
(48.9032°N, 1.6195°E)
Time: 16:40:11
(UTC+00:00)

COSMO-SKYMED 1 - Pass Details

Date: 03 February 2023
Orbit: 621 x 623 km, 97.9° (Epoch: 31 March)

Event Time Altitude Azimuth Distance (km) Brightness Sun altitude
Rises 18:40:58 0° 8° (N) 2,921 5.9 -17.8°
Reaches altitude 10° 18:43:14 10° 2° (N) 2,009 5.1 -18.1°
Maximum altitude 18:47:23 45° 291° (WNW) 860 3.7 -18.8°
Drops below altitude 10° 18:51:31 10° 219° (SW) 1,993 5.7 -19.5°
Sets 18:53:45 0° 213° (SSW) 2,894 6.5 -19.9°
